[[{"header":{"parameterUnit":"m.s-1","parameterCategory":1,"la1":30.2991,"la2":30.254,"lo1":-89.0895,"lo2":-89.0444,"dy":0.0017,"dx":0.0017,"nx":28,"ny":28,"refTime":"2023-11-14T03:00:00:Z","depth":0,"parameterNumber":2,"parameterNumberName":"U-component_of_WINDS"},"data":[0,0,0,0,0,0,0,0,0,0,0,0,0,0,0,0,0,0,0,0,0,0,0,0,0,0,0,0,0,0,0,0,0,0,0,0,0,0,0,0,0,0,0,0,0,0,0,0,0,0,0,0,0,0,0,0,0,0,-6.0512,-6.0513,0,-6.06,-6.0601,-6.0602,-6.0449,-6.0444,-6.0439,-6.0434,-6.0526,-6.0533,-6.054,0,0,0,0,0,0,0,0,0,0,0,0,0,-6.0215,-6.0221,-6.0512,-6.0513,-6.0514,-6.06,-6.0601,-6.0602,-6.045,-6.0444,-6.0438,-6.0432,-6.0524,-6.0532,-6.0541,0,0,0,0,0,0,0,0,0,0,0,0,0,-6.0328,-6.0223,-6.0512,-6.0449,-6.0444,-6.0599,-6.0601,-6.0602,-6.0452,-6.0444,-6.0436,-6.0429,-6.0521,-6.0531,-6.0542,-6.0764,0,0,-6.0575,-6.058,0,0,0,0,0,0,0,0,-6.0321,-6.0339,-6.0457,-6.0453,-6.0448,-6.0506,-6.0529,-6.0657,-6.0454,-6.0449,-6.0434,-6.0425,-6.0526,-6.0536,-6.0569,-6.0768,-6.0772,-6.0576,-6.0583,-6.0587,-6.0591,0,0,0,0,0,0,0,-6.0314,-6.0334,-6.0547,-6.0459,-6.0454,-6.0417,-6.0424,-6.0553,-6.053,-6.0449,-6.0438,-6.045,-6.0522,-6.0559,-6.057,-6.0773,-6.0576,-6.0586,-6.0592,-6.0597,-6.1159,-6.1167,0,0,0,0,0,0,-6.0314,-6.0329,-6.0544,-6.0549,-6.0365,-6.0428,-6.0437,-6.0495,-6.0528,-6.0525,-6.0457,-6.0443,-6.0544,-6.0558,-6.0573,-6.0835,-6.0587,-6.0598,-6.0604,-6.1151,-6.1161,-6.117,0,0,0,0,0,0,-6.0308,-6.0334,-6.054,-6.0436,-6.0459,-6.0442,-6.0509,-6.0501,-6.0538,-6.0534,-6.0529,-6.0499,-6.0539,-6.0557,-6.0717,-6.0836,-6.0602,-6.0612,-6.1141,-6.1154,-6.1166,-6.1362,0,0,0,0,0,0,-6.03,-6.0333,-6.0417,-6.0439,-6.0466,-6.0684,-6.0516,-6.0508,-6.0557,-6.0539,-6.0572,-6.057,-6.0534,-6.0702,-6.0728,-6.0847,-6.0621,-6.113,-6.1147,-6.1162,-6.1344,-6.1379,-6.1409,0,0,0,0,0,-6.029,-6.0469,-6.0422,-6.0449,-6.057,-6.0691,-6.0706,-6.066,-6.0567,-6.0651,-6.0649,-6.0569,-6.0819,-6.072,-6.0748,-6.0872,-6.1122,-6.1142,-6.116,-6.133,-6.1373,-6.1408,0,0,0,0,0,0,-6.0461,-6.047,-6.0419,-6.061,-6.0651,-6.0665,-6.077,-6.0707,-6.0776,-6.0757,-6.0697,-6.0706,-6.0879,-6.089,-6.078,-6.1088,-6.0955,-6.0981,-6.1074,-6.1115,-6.1146,-6.1141,-6.063,0,0,0,0,0,-6.0521,-6.0618,-6.0621,-6.079,-6.0813,-6.0789,-6.0839,-6.0801,-6.0841,-6.0857,-6.0866,-6.0909,-6.0997,-6.1056,-6.1136,-6.1345,-6.135,-6.1444,-6.1476,-6.1503,-6.1526,-6.1638,-6.168,-6.1232,-6.1232,-6.1232,0,0,-6.0647,-6.0663,-6.0728,-6.0825,-6.0852,-6.0954,-6.0804,-6.0918,-6.0994,-6.0875,-6.1027,-6.1035,-6.1078,-6.1264,-6.1346,-6.1279,-6.1651,-6.1527,-6.1548,-6.1557,-6.1662,-6.1705,-6.1743,-6.1245,-6.1243,-6.1241,0,0,-6.0927,-6.095,-6.1093,-6.1123,-6.1166,-6.1148,-6.1183,-6.1207,-6.1208,-6.1359,-6.1271,-6.1361,-6.1513,-6.1548,-6.1586,-6.188,-6.181,-6.1908,-6.2078,-6.2188,-6.2224,-6.2255,-6.2361,-6.24,-6.1931,-6.1932,-6.1932,0,-6.1078,-6.1228,-6.1174,-6.1296,-6.1341,-6.1237,-6.1382,-6.1414,-6.1482,-6.1516,-6.1439,-6.1629,-6.1651,-6.1844,-6.1916,-6.1949,-6.1988,-6.1905,-6.2223,-6.2253,-6.2281,-6.2382,-6.2422,-6.1943,-6.1942,-6.1941,-6.194,0,-6.1412,-6.1518,-6.1628,-6.1696,-6.1753,-6.1886,-6.1853,-6.1918,-6.1874,-6.1865,-6.2021,-6.2043,-6.2127,-6.2169,-6.2128,-6.2357,-6.2315,-6.2232,-6.2097,-6.2337,-6.2431,-6.2469,-6.196,-6.1956,-6.1952,-6.195,0,0,-6.1804,-6.184,-6.1881,-6.1911,-6.195,-6.2032,-6.216,-6.2241,-6.2299,-6.2348,-6.2455,-6.2587,-6.251,-6.2554,-6.2515,-6.2612,-6.2845,-6.2517,-6.2517,-6.2578,-6.31,-6.3164,-6.3209,-6.2798,-6.2805,-6.2811,-6.3097,0,-6.2084,-6.2304,-6.226,-6.2476,-6.2574,-6.2476,-6.2588,-6.2625,-6.262,-6.2702,-6.2696,-6.2791,-6.2683,-6.2708,-6.2799,-6.2798,-6.2949,-6.2776,-6.2898,-6.2903,-6.2892,-6.3258,-6.3325,-6.3594,-6.3133,-6.314,-6.3144,0,-6.244,-6.2503,-6.273,-6.2754,-6.2793,-6.2895,-6.2966,-6.3046,-6.3086,-6.3075,-6.3124,-6.3067,-6.3195,-6.3058,-6.3235,-6.3118,-6.3165,-6.3172,-6.3181,-6.3192,-6.3039,-6.328,-6.3679,-6.372,-6.3201,-6.3196,-6.3192,0,-6.2705,-6.2847,-6.3,-6.3029,-6.3061,-6.3134,-6.3151,-6.3183,-6.3235,-6.3298,-6.3331,-6.3408,-6.3451,-6.3512,-6.3478,-6.3381,-6.3662,-6.3521,-6.3658,-6.3659,-6.3722,-6.3719,-6.4136,-6.3751,-6.3751,-6.375,-6.3749,0,-6.3024,-6.3166,-6.312,-6.3215,-6.3372,-6.332,-6.3477,-6.3482,-6.3512,-6.3606,-6.3526,-6.3617,-6.3566,-6.3653,-6.3627,-6.3778,-6.3798,-6.3794,-6.3786,-6.3802,-6.3803,-6.3833,-6.3814,-6.376,-6.3758,-6.3756,-6.3754,0,-6.3347,-6.3322,-6.3483,-6.35,-6.3507,-6.3623,-6.3637,-6.3726,-6.3715,-6.3836,-6.3861,-6.3844,-6.3943,-6.3914,-6.4021,-6.4003,-6.4195,-6.4162,-6.4182,-6.4174,-6.4313,-6.4301,-6.4765,-6.4824,-6.44,-6.4404,-6.4408,0,-6.3552,-6.366,-6.3688,-6.3746,-6.3768,-6.3862,-6.3914,-6.3867,-6.3925,-6.3979,-6.4062,-6.4153,-6.4224,-6.4386,-6.4384,-6.4465,-6.4434,-6.4591,-6.4446,-6.446,-6.4439,-6.4433,-6.4444,-6.4621,-6.4626,-6.463,-6.4633,0,-6.392,-6.3902,-6.3981,-6.4056,-6.4121,-6.4178,-6.4227,-6.4279,-6.4235,-6.4305,-6.4404,-6.4459,-6.4568,-6.466,-6.4735,-6.4752,-6.4687,-6.4679,-6.4715,-6.4733,-6.4741,-6.474,-6.4262,-6.4668,-6.4665,-6.4662,-6.466,-6.4659,-6.4192,-6.4283,-6.4317,-6.4408,-6.444,-6.4488,-6.4573,-6.4572,-6.4654,-6.4738,-6.4705,-6.482,-6.4858,-6.4951,-6.4978,-6.5068,-6.5008,-6.506,-6.5074,-6.5088,-6.5106,-6.4726,-6.5081,-6.508,-6.5079,-6.5078,-6.5078,0,-6.4556,-6.4574,-6.4657,-6.4729,-6.4801,-6.4731,-6.4782,-6.4847,-6.4949,-6.4989,-6.5061,-6.5176,-6.5265,-6.5269,-6.5353,-6.5424,-6.5396,-6.5448,-6.5443,-6.5448,-6.5154,-6.5115,-6.5469,-6.5469,-6.5469,-6.5469,-6.5469,-6.5469,-6.4755,-6.4906,-6.4892,-6.5059,-6.5075,-6.5186,-6.5222,-6.5266,-6.5298,-6.543,-6.5503,-6.5505,-6.5532,-6.5617,-6.5696,-6.5695,-6.573,-6.5794,-6.5782,-6.5508,-6.5469,-6.5432,-6.5395,-6.5802,-6.5802,-6.6069,-6.6071,-6.6073]},{"header":{"parameterUnit":"m.s-1","parameterCategory":1,"la1":30.2991,"la2":30.254,"lo1":-89.0895,"lo2":-89.0444,"dy":0.0017,"dx":0.0017,"nx":28,"ny":28,"refTime":"2023-11-14T03:00:00:Z","depth":0,"parameterNumber":3,"parameterNumberName":"V-component_of_WINDS"},"data":[0,0,0,0,0,0,0,0,0,0,0,0,0,0,0,0,0,0,0,0,0,0,0,0,0,0,0,0,0,0,0,0,0,0,0,0,0,0,0,0,0,0,0,0,0,0,0,0,0,0,0,0,0,0,0,0,0,0,-3.5304,-3.5304,0,-3.5318,-3.5319,-3.5319,-3.5275,-3.5274,-3.5273,-3.5272,-3.5285,-3.5287,-3.5289,0,0,0,0,0,0,0,0,0,0,0,0,0,-3.5238,-3.5239,-3.5304,-3.5304,-3.5305,-3.5318,-3.5319,-3.5319,-3.5276,-3.5274,-3.5272,-3.5271,-3.5285,-3.5287,-3.5289,0,0,0,0,0,0,0,0,0,0,0,0,0,-3.5261,-3.524,-3.5304,-3.5285,-3.5283,-3.5318,-3.5319,-3.5319,-3.5276,-3.5274,-3.5272,-3.527,-3.5284,-3.5287,-3.5289,-3.5343,0,0,-3.5296,-3.5297,0,0,0,0,0,0,0,0,-3.5259,-3.5263,-3.5287,-3.5286,-3.5284,-3.5293,-3.53,-3.5327,-3.5276,-3.5279,-3.5271,-3.5269,-3.529,-3.5291,-3.5298,-3.5344,-3.5345,-3.5296,-3.5298,-3.5299,-3.53,0,0,0,0,0,0,0,-3.5258,-3.5262,-3.531,-3.5288,-3.5286,-3.5275,-3.5276,-3.5305,-3.5295,-3.5278,-3.5275,-3.5278,-3.5288,-3.5296,-3.5298,-3.5345,-3.5296,-3.5299,-3.53,-3.5301,-3.5433,-3.5435,0,0,0,0,0,0,-3.5259,-3.5261,-3.5309,-3.531,-3.5267,-3.5277,-3.5279,-3.5292,-3.5295,-3.5293,-3.5279,-3.5275,-3.5293,-3.5296,-3.5299,-3.5361,-3.5299,-3.5301,-3.5303,-3.5431,-3.5434,-3.5436,0,0,0,0,0,0,-3.5258,-3.5264,-3.5309,-3.5285,-3.529,-3.5281,-3.5296,-3.5294,-3.5301,-3.5295,-3.5293,-3.5289,-3.5292,-3.5295,-3.5332,-3.5361,-3.5302,-3.5304,-3.5429,-3.5432,-3.5435,-3.5487,0,0,0,0,0,0,-3.5256,-3.5264,-3.5285,-3.5286,-3.5291,-3.5343,-3.5298,-3.5295,-3.5306,-3.5301,-3.5304,-3.5303,-3.529,-3.5329,-3.5335,-3.5363,-3.5306,-3.5426,-3.543,-3.5434,-3.5483,-3.5491,-3.5499,0,0,0,0,0,-3.5254,-3.5299,-3.5286,-3.5292,-3.5318,-3.5345,-3.5348,-3.5333,-3.5308,-3.5329,-3.5325,-3.5303,-3.5357,-3.5333,-3.5339,-3.5369,-3.5424,-3.5429,-3.5434,-3.5479,-3.549,-3.5499,0,0,0,0,0,0,-3.5302,-3.5299,-3.5285,-3.5332,-3.5339,-3.5337,-3.5363,-3.5345,-3.5359,-3.5354,-3.5334,-3.5335,-3.5375,-3.5376,-3.5349,-3.542,-3.5386,-3.5392,-3.5419,-3.5429,-3.5437,-3.5435,-3.5308,0,0,0,0,0,-3.5319,-3.5341,-3.5337,-3.5379,-3.5383,-3.5373,-3.5384,-3.5371,-3.5378,-3.5381,-3.5379,-3.5386,-3.5404,-3.5417,-3.5433,-3.5483,-3.5482,-3.5506,-3.5514,-3.5521,-3.5526,-3.555,-3.556,-3.5451,-3.5451,-3.5451,0,0,-3.5352,-3.5353,-3.5369,-3.5389,-3.5392,-3.5415,-3.5375,-3.5402,-3.5418,-3.5384,-3.5419,-3.5418,-3.5424,-3.5467,-3.5485,-3.5468,-3.5556,-3.5527,-3.5532,-3.5534,-3.5556,-3.5566,-3.5576,-3.5455,-3.5454,-3.5454,0,0,-3.5425,-3.5429,-3.5463,-3.5467,-3.5474,-3.5466,-3.5474,-3.5475,-3.5473,-3.5507,-3.5482,-3.5501,-3.5533,-3.5538,-3.5545,-3.5617,-3.5597,-3.5623,-3.5666,-3.569,-3.5698,-3.5706,-3.573,-3.5739,-3.5629,-3.5629,-3.5629,0,-3.5466,-3.55,-3.5483,-3.551,-3.5519,-3.5489,-3.5523,-3.5528,-3.554,-3.5546,-3.5527,-3.5565,-3.5568,-3.561,-3.5628,-3.5635,-3.5642,-3.5623,-3.5698,-3.5706,-3.5712,-3.5735,-3.5745,-3.5632,-3.5632,-3.5631,-3.5631,0,-3.5549,-3.5573,-3.5599,-3.561,-3.5622,-3.5653,-3.564,-3.5654,-3.564,-3.5634,-3.5668,-3.5669,-3.5685,-3.5694,-3.5682,-3.5735,-3.5724,-3.5702,-3.5667,-3.5726,-3.5747,-3.5756,-3.5636,-3.5635,-3.5634,-3.5634,0,0,-3.5653,-3.5653,-3.5663,-3.5667,-3.5671,-3.5689,-3.5717,-3.5732,-3.5743,-3.5752,-3.5775,-3.5802,-3.5781,-3.5789,-3.5776,-3.5797,-3.5853,-3.5773,-3.5772,-3.5786,-3.5909,-3.5925,-3.5935,-3.5839,-3.5841,-3.5842,-3.5908,0,-3.5723,-3.5772,-3.5757,-3.5806,-3.5826,-3.5798,-3.5822,-3.5827,-3.5822,-3.5838,-3.5832,-3.5851,-3.5823,-3.5827,-3.5847,-3.5842,-3.5877,-3.5837,-3.5859,-3.586,-3.5857,-3.5946,-3.5963,-3.6025,-3.5916,-3.5918,-3.5919,0,-3.5812,-3.5823,-3.5874,-3.5872,-3.588,-3.5903,-3.5914,-3.5931,-3.5934,-3.5929,-3.5937,-3.592,-3.5946,-3.5912,-3.5948,-3.5921,-3.5929,-3.5928,-3.593,-3.593,-3.5892,-3.5948,-3.6045,-3.6054,-3.5932,-3.5931,-3.593,0,-3.5881,-3.5909,-3.5942,-3.5946,-3.5946,-3.5962,-3.5963,-3.5965,-3.5974,-3.5984,-3.5989,-3.6003,-3.601,-3.602,-3.6006,-3.5983,-3.6043,-3.6008,-3.6039,-3.6039,-3.6052,-3.6051,-3.615,-3.606,-3.6059,-3.6059,-3.6059,0,-3.596,-3.5992,-3.5973,-3.5993,-3.6027,-3.6009,-3.6043,-3.6041,-3.6042,-3.6061,-3.6037,-3.6055,-3.6036,-3.6053,-3.6042,-3.6072,-3.6076,-3.6072,-3.6068,-3.6073,-3.6074,-3.6078,-3.6072,-3.6062,-3.6061,-3.6061,-3.606,0,-3.6043,-3.6032,-3.6066,-3.6062,-3.6061,-3.6087,-3.6083,-3.6101,-3.6094,-3.6118,-3.6123,-3.6111,-3.6129,-3.6116,-3.6134,-3.6126,-3.6166,-3.6157,-3.6164,-3.6162,-3.6192,-3.6189,-3.6296,-3.6309,-3.6211,-3.6212,-3.6213,0,-3.6094,-3.6117,-3.6116,-3.6126,-3.6128,-3.6146,-3.6155,-3.6137,-3.6147,-3.6153,-3.617,-3.6185,-3.6197,-3.6226,-3.6219,-3.6232,-3.6222,-3.6259,-3.6224,-3.6228,-3.6221,-3.6219,-3.6221,-3.6266,-3.6267,-3.6268,-3.6269,0,-3.6185,-3.6177,-3.6191,-3.6203,-3.6214,-3.6222,-3.6228,-3.6238,-3.622,-3.6233,-3.625,-3.6259,-3.6276,-3.6291,-3.6301,-3.6301,-3.6282,-3.628,-3.6287,-3.6292,-3.6294,-3.6292,-3.6182,-3.6277,-3.6276,-3.6276,-3.6275,-3.6275,-3.6252,-3.6271,-3.6272,-3.6287,-3.629,-3.6296,-3.6312,-3.6307,-3.6321,-3.6333,-3.6322,-3.6342,-3.6344,-3.6355,-3.6358,-3.6373,-3.6358,-3.6369,-3.6371,-3.6374,-3.6378,-3.6293,-3.6375,-3.6375,-3.6374,-3.6374,-3.6374,0,-3.634,-3.6339,-3.6354,-3.6362,-3.6374,-3.6355,-3.636,-3.6371,-3.6389,-3.6393,-3.6404,-3.6423,-3.6437,-3.6431,-3.6443,-3.6456,-3.6447,-3.646,-3.6458,-3.6458,-3.6391,-3.6383,-3.6467,-3.6467,-3.6466,-3.6466,-3.6466,-3.6466,-3.6387,-3.6417,-3.641,-3.644,-3.6439,-3.6458,-3.6463,-3.6468,-3.647,-3.6492,-3.6503,-3.6499,-3.6498,-3.651,-3.6522,-3.6519,-3.6524,-3.654,-3.6534,-3.6472,-3.6463,-3.6454,-3.6446,-3.6541,-3.6541,-3.6599,-3.66,-3.66]}]]